Starlink 36891

operational
NORAD ID: 68024 Int'l Des: 2026-040 Owner: SPXS Country: US Constellation: starlink
LEOCIRCULARRETROGRADE

Über Starlink 36891

Beschreibung wird geladen...

Live-Position

3D-Globus wird geladen...

Nächste Überflüge

Höhenverlauf

Altitude vs Time

uPlot chart will show altitude changes over time

Zweizeiliger Elementsatz

1 68024C 26040K 26061.10534722 .00617280 00000+0 67230-3 0 615
2 68024 97.2860 8.4887 0010046 257.8111 211.9070 16.09101073 14
Epoch: 2. März 2026 • Age: 26 hours

Aktueller Status

Höhe 266.5 km
Geschwindigkeit 7.75 km/s
Subsatellitenpunkt -74.57°S, 21.47°W
Startdatum 1. März 2026
Alter 1 days
Typ internet

Technische Details

Klassifizierung Payload
Masse 575.00 kg
Trockenmasse 530.00 kg
Gesamtmasse 575.00 kg
Länge 0.30 m
Durchmesser 4.10 m
Spannweite 29.00 m
Form Box + pan
Hersteller SPXS
Bus-Typ Starlink V2MO
Phasenstatus In Orbit
Besitzer/Staat SPXS/US

Große Konstellationen

Loading constellations...